Header for Extended Forecast Station List Page

Search by: ID | Name | Date | Parm | Value | Avg | % Avg
Sort by: ID | Name | Date | Parm | Value | Avg | % Avg

Enter search or view all records.

Click on id for station plot
#IDNameDateParmValueAvg% Avg
0BULO3BULLY CREEK-BULLY CREEK DAM03-30-2020INFLOW (KAF)3379
1MYKO3MCKAY CREEK-NEAR PILOT ROCK03-30-2020DISCHARGE (KAF)172183
2WRMO3MALHEUR-WARM SPRINGS DAM03-30-2020INFLOW (KAF)4739121
3BERO3MALHEUR-AGENCY VALLEY DAM03-30-2020INFLOW (KAF)364091
4RIDI1WILLOW CREEK-RIRIE DAM03-30-2020INFLOW (KAF)5742135
5GIBO3UMATILLA-NEAR GIBBON03-30-2020DISCHARGE (KAF)7866118
6LWRI1LITTLE WOOD-LITTLE WOOD DAM03-30-2020INFLOW (KAF)377449
7PIHI1PORTNEUF-AT POCATELLO03-30-2020DISCHARGE (KAF)667984
8DLGM8CLARK FORK-AT DEER LODGE03-30-2020DISCHARGE (KAF)728091
9UMAO3UMATILLA-NEAR UMATILLA03-30-2020DISCHARGE (KAF)12983156
10EASW1YAKIMA-AT EASTON03-30-2020DISCHARGE (KAF)10394110
11KADW1KACHESS-KACHESS DAM03-30-2020INFLOW (KAF)9810097
12KEDW1YAKIMA-KEECHELUS LAKE03-30-2020INFLOW (KAF)112108104
13BUDW1BUMPING-BUMPING LAKE DAM03-30-2020INFLOW (KAF)122110111
14TCHW1WALLA WALLA-NEAR TOUCHET03-30-2020DISCHARGE (KAF)139113122
15TNAW1TEANAWAY-BELOW FORKS03-30-2020DISCHARGE (KAF)116114102
16DEDI1DEADWOOD-NEAR LOWMAN03-30-2020INFLOW (KAF)9212872
17SATI1ST MARIES-NEAR SANTA03-30-2020DISCHARGE (KAF)12112994
18PDTO3UMATILLA-AT PENDLETON03-30-2020DISCHARGE (KAF)159131122
19HWRI1BIG LOST-AT HOWELL RANCH NEAR CHILLY03-30-2020DISCHARGE (KAF)8915358
20MACI1BIG LOST-MACKAY RESERVOIR NEAR MACKAY03-30-2020INFLOW (KAF)8015352
21HOTI1BRUNEAU-NEAR HOT SPRINGS03-30-2020DISCHARGE (KAF)14417582
22RILW1TIETON-RIMROCK LAKE NEAR RIMROCK03-30-2020INFLOW (KAF)197185106
23ARDW1ENTIAT-NEAR ARDENVOIR03-30-2020DISCHARGE (KAF)16719088
24IPDI1HENRYS FORK-ISLAND PARK DAM03-30-2020INFLOW (KAF)19620098
25HODO3HOOD-NEAR TUCKER BRIDGE03-30-2020DISCHARGE (KAF)18421685
26HALI1BIG WOOD-AT HAILEY03-30-2020DISCHARGE (KAF)12922258
27MAGI1BIG WOOD-MAGIC DAM03-30-2020INFLOW (KAF)9323739
28STRM8ST. REGIS-NEAR ST. REGIS03-30-2020DISCHARGE (KAF)20424783
29RCCM8ROCK CREEK-NEAR CLINTON03-30-2020DISCHARGE (KAF)22724891
30OWYO3OWYHEE-OWYHEE DAM03-30-2020INFLOW (KAF)16629456
31UNDW1WHITE SALMON-NEAR UNDERWOOD03-30-2020DISCHARGE (KAF)25131480
32CHEI1FALL RIVER-NEAR CHESTER03-30-2020DISCHARGE (KAF)317315101
33TEAI1TETON-NEAR ST. ANTHONY03-30-2020DISCHARGE (KAF)362329110
34CLFW1NACHES-NEAR CLIFFDEL03-30-2020DISCHARGE (KAF)398349114
35WSRI1WEISER-NEAR WEISER03-30-2020DISCHARGE (KAF)24835869
36CLUW1CLE ELUM-CLE ELUM LAKE03-30-2020INFLOW (KAF)380367104
37MILI1SNAKE-AT MILNER03-30-2020DISCHARGE (KAF)988411240
38PARI1BOISE-NEAR PARMA03-30-2020DISCHARGE (KAF)35041385
39BIGI1BOISE-AT GLENWOOD BRIDGE03-30-2020DISCHARGE (KAF)38543489
40PITW1KLICKITAT-NEAR PITT03-30-2020DISCHARGE (KAF)36546778
41NACW1NACHES-NEAR NACHES03-30-2020DISCHARGE (KAF)575471122
42PARW1YAKIMA-NEAR PARKER03-30-2020DISCHARGE (KAF)524471111
43CSDI1NF PAYETTE-CASCADE DAM03-30-2020INFLOW (KAF)36147676
44ARAI1SF BOISE-ANDERSON RANCH DAM03-30-2020INFLOW (KAF)31249663
45MONO3NF JOHN DAY-AT MONUMENT03-30-2020DISCHARGE (KAF)542536101
46ANTI1HENRYS FORK-AT ST. ANTHONY03-30-2020DISCHARGE (KAF)58961396
47REXI1HENRYS FORK-AT REXBURG03-30-2020DISCHARGE (KAF)69071397
48JLKW4SNAKE-JACKSON LAKE AT DAM03-30-2020INFLOW (KAF)67273691
49UMTW1YAKIMA-AT UMTANUM03-30-2020DISCHARGE (KAF)758755100
50SERO3JOHN DAY-AT SERVICE CK03-30-2020DISCHARGE (KAF)71675595
51PRTI1PRIEST-NEAR PRIEST RIVER03-30-2020DISCHARGE (KAF)70876592
52BONM8BLACKFOOT-NEAR BONNER03-30-2020DISCHARGE (KAF)796777102
53PATW1METHOW-NEAR PATEROS03-30-2020DISCHARGE (KAF)76681894
54KIOW1YAKIMA-AT KIONA03-30-2020DISCHARGE (KAF)76784691
55CHDW1CHELAN-LAKE CHELAN DAM03-30-2020INFLOW (KAF)88695193
56EMMI1PAYETTE-NEAR EMMETT03-30-2020DISCHARGE (KAF)673118157
57BITM8BITTERROOT-NEAR MISSOULA03-30-2020DISCHARGE (KAF)1075119190
58TRYO3GRANDE RONDE-TROY03-30-2020DISCHARGE (KAF)13381204111
59MODO3DESCHUTES-AT MOODY NR BIGGS03-30-2020DISCHARGE (KAF)1232136191
60PESW1WENATCHEE-AT PESHASTIN03-30-2020DISCHARGE (KAF)1214137788
61ABOM8CLARK FORK-ABOVE MISSOULA03-30-2020DISCHARGE (KAF)1308138195
62TONW1OKANOGAN-NEAR TONASKET03-30-2020DISCHARGE (KAF)1252140789
63JKSW4SNAKE-NEAR JACKSON03-30-2020DISCHARGE (KAF)17261480117
64WGCM8MF FLATHEAD-NEAR WEST GLACIER03-30-2020DISCHARGE (KAF)16491508109
65FCFM8NF FLATHEAD-NEAR COLUMBIA FALLS03-30-2020DISCHARGE (KAF)1520154498
66LAUW1KETTLE-AT LAURIER03-30-2020DISCHARGE (KAF)21181702124
67BFTI1SNAKE-NEAR BLACKFOOT03-30-2020DISCHARGE (KAF)23641721137
68SNAI1SNAKE-AT BLACKFOOT03-30-2020DISCHARGE (KAF)24121804134
69HHWM8SF FLATHEAD-HUNGRY HORSE DAM03-30-2020INFLOW (KAF)19451880103
70ALPW4SNAKE-NEAR ALPINE03-30-2020DISCHARGE (KAF)21451925111
71SHYI1SNAKE-NEAR SHELLEY03-30-2020DISCHARGE (KAF)29172234131
72AFRI1SNAKE-AMERICAN FALLS RESERVOIR03-30-2020INFLOW (KAF)28542348122
73SIFI1SNAKE-AB EAGLE ROCK NR IDAHO FALLS03-30-2020DISCHARGE (KAF)31242379131
74SWAI1SNAKE-BELOW SWAN FALLS03-30-2020DISCHARGE (KAF)26152382110
75COEI1COEUR D ALENE-COEUR D ALENE LAKE03-30-2020INFLOW (KAF)2326252092
76DWRI1NF CLEARWATER-DWORSHAK DAM03-30-2020INFLOW (KAF)2303260588
77BELM8CLARK FORK-BELOW MISSOULA03-30-2020DISCHARGE (KAF)2383261091
78PLDI1SF SNAKE-PALISADES DAM03-30-2020INFLOW (KAF)30562796109
79HEII1SNAKE-NEAR HEISE03-30-2020DISCHARGE (KAF)36572810130
80LLKW1SPOKANE-AT LONGLAKE03-30-2020INFLOW (KAF)2438299981
81SRGM8CLARK FORK-AT ST REGIS03-30-2020DISCHARGE (KAF)2899349483
82CFMM8FLATHEAD-AT COLUMBIA FALLS03-30-2020DISCHARGE (KAF)46844061115
83ORFI1CLEARWATER-AT OROFINO03-30-2020DISCHARGE (KAF)44894444101
84WEII1SNAKE-AT WEISER03-30-2020DISCHARGE (KAF)4199479788
85LEOI1KOOTENAI-AT LEONIA03-30-2020DISCHARGE (KAF)3722507373
86KERM8FLATHEAD-KERR DAM03-30-2020INFLOW (KAF)52615079104
87BRNI1SNAKE-BROWNLEE DAM03-30-2020INFLOW (KAF)4585519488
88LYDM8KOOTENAI-LIBBY DAM03-30-2020INFLOW (KAF)4951551090
89WHBI1SALMON-AT WHITEBIRD03-30-2020DISCHARGE (KAF)3963553972
90SPDI1CLEARWATER-AT SPALDING03-30-2020DISCHARGE (KAF)5972672389
91NOXM8CLARK FORK-NOXON RAPIDS DAM03-30-2020INFLOW (KAF)7527867587
92CABI1CLARK FORK-CABINET GORGE DAM03-30-2020INFLOW (KAF)8275916690
93ALFW1PEND OREILLE-ALBENI FALLS DAM03-30-2020INFLOW (KAF)94731074388
94ANAW1SNAKE-NEAR ANATONE03-30-2020DISCHARGE (KAF)95871292774
95IHDW1SNAKE-ICE HARBOR DAM03-30-2020INFLOW (KAF)156271968379
96LGSW1SNAKE-LITTLE GOOSE DAM03-30-2020INFLOW (KAF)155591970379
97LGDW1SNAKE-LOWER GRANITE DAM03-30-2020INFLOW (KAF)155591970479
98LMNW1SNAKE-LOWER MONUMENTAL DAM03-30-2020INFLOW (KAF)156261981679
99CHJW1COLUMBIA-CHIEF JOSEPH DAM03-30-2020INFLOW (KAF)278233082790
100WELW1COLUMBIA-WELLS DAM03-30-2020INFLOW (KAF)298383346089
101RRHW1COLUMBIA-ROCKY REACH DAM03-30-2020INFLOW (KAF)304943397290
102GCDW1COLUMBIA-GRAND COULEE DAM03-30-2020INFLOW (KAF)315663993379
103WANW1COLUMBIA-WANAPUM DAM03-30-2020INFLOW (KAF)318064034879
104PRWW1COLUMBIA-PRIEST RAPIDS DAM03-30-2020INFLOW (KAF)318024112577
105TDAO3COLUMBIA-THE DALLES DAM03-30-2020INFLOW (KAF)504455827387
106BONO3COLUMBIA-BONNEVILLE DAM03-30-2020INFLOW (KAF)512466020485
107MCDW1COLUMBIA-MCNARY DAM03-30-2020INFLOW (KAF)483026263877
108JDAO3COLUMBIA-JOHN DAY DAM03-30-2020INFLOW (KAF)502256470578
109BFEI1KOOTENAI-AT BONNERS FERRY03-30-2020STAGE (FT)MMM
110DRMM8CLARK FORK-NR DRUMMOND03-30-2020DISCHARGE (KAF)234MM
111HOPI1PEND OREILLE-PEND OREILLE LAKE NR HOPE03-30-2020LAKE ELEVATION (FT)MMM
112SPOW1SPOKANE-AT SPOKANE03-30-2020DISCHARGE (KAF)2230MM
113SJMI1ST JOE-AT ST MARIES03-30-2020STAGE (FT)MMM
114CIBW1COLUMBIA-AT INTL BOUNDARY03-30-2020DISCHARGE (KAF)26944MM
115LUCI1BOISE-LUCKY PEAK DAM03-30-2020INFLOW (KAF)1128MM